sat.trackr.live / text

‹ back to catalog

STARLINK-3546

NORAD 51718 · 2022-016E

PAYLOAD ACTIVE UNKNOWN

§ Identity

Operator
Country
US
Launch date
2022-02-21
Launch site
AFETR
Launch vehicle
Mass (kg)
RCS (m²)

Purposes: comms

External: N2YO · Heavens-Above · Gunter

§ Orbital elements

Epoch: 2026-05-24T23:00:51.513120Z

Period
94.82 min
Inclination
53.2156°
Eccentricity
0.0003877
Mean motion
15.18616818 rev/d
Perigee alt
507.3 km
Apogee alt
512.7 km
Semi-major
6,888.2 km
B*
1.1340e-3
RAAN
339.6545°
Arg perigee
133.4571°
Mean anomaly
226.6748°
Rev number
23,616

§ Raw data

STARLINK-35461 51718U 22016E   26144.95892955  .00023519  00000+0  11340-2 0  99922 51718  53.2156 339.6545 0003877 133.4571 226.6748 15.18616818236168

JSON: /api/v1/satellites/51718 · /tle

For live sub-satellite position, see the globe view (requires WebGL).

§ Visibility from observer

Set your observer location to see the next 7 days of passes ≥ 10°. The values pass through the URL so the page stays shareable.

No JS? Fill the form by hand. The geolocation button needs JavaScript.